Tracking 33446 objects as of 10-Mar-2026
HD Live streaming from Space Station
objects crossing your sky now

STARLINK-35270

Track STARLINK-35270 now!
10-day predictions
STARLINK-35270 is classified as:


NORAD ID: 65882
Int'l Code: 2025-224A
Perigee: 481.0 km
Apogee: 483.6 km
Inclination: 53.2 °
Period: 94.1 minutes
Semi major axis: 6853 km
RCS: Unknown
Launch date: October 7, 2025
Source: United States (US)
Launch site: AIR FORCE EASTERN TEST RANGE (AFETR)
Your satellite tracking list
Your tracking list is empty




NASA's NSSDC Master Catalog

Two Line Element Set (TLE):
1 65882U 25224A   26069.14405425  .00037106  00000-0  12581-2 0  9998
2 65882  53.1610   9.2623 0001858 117.6429 242.4761 15.30215262 24897
Source of the keplerian elements: AFSPC